• In Russia
  • List of Countries
  • For 7 days
  • Water Temperature
  • Satellite Maps
  • Weather Map
  • Weather Widgets
  • user-avatar
    Login

    Hourly Weather Kuny

    Today, 20 October, Saturday

    Time Temperature Precipitation Wind Pressure Humidity
    00:00 +12°C° 0 mm 1 mps 755 mmHg 89%
    01:00 +12°C° 0 mm 1 mps 755 mmHg 89%
    02:00 +12°C° 0 mm 1 mps 755 mmHg 90%
    03:00 +12°C° 0 mm 1 mps 755 mmHg 90%
    04:00 +11°C° 0 mm 1 mps 755 mmHg 91%
    05:00 +11°C° 0 mm 1 mps 755 mmHg 90%
    06:00 +10°C° 0 mm 2 mps 755 mmHg 89%
    07:00 +12°C° 0 mm 2 mps 756 mmHg 89%
    08:00 +12°C° 0 mm 2 mps 756 mmHg 85%
    09:00 +11°C° 0 mm 3 mps 756 mmHg 81%
    10:00 +12°C° 0 mm 3 mps 756 mmHg 77%
    11:00 +12°C° 0 mm 4 mps 756 mmHg 71%
    12:00 +13°C° 0 mm 4 mps 756 mmHg 66%
    13:00 +13°C° 0 mm 4 mps 756 mmHg 60%
    14:00 +12°C° 0 mm 4 mps 756 mmHg 60%
    15:00 +12°C° 0 mm 5 mps 756 mmHg 61%
    16:00 +10°C° 0 mm 5 mps 756 mmHg 61%
    17:00 +9°C° 0 mm 5 mps 756 mmHg 62%
    18:00 +10°C° 0 mm 4 mps 756 mmHg 63%
    19:00 +8°C° 0 mm 4 mps 756 mmHg 64%
    20:00 +8°C° 0 mm 4 mps 757 mmHg 66%
    21:00 +8°C° 0 mm 4 mps 757 mmHg 68%
    22:00 +7°C° 0 mm 4 mps 757 mmHg 69%
    23:00 +8°C° 0.1 mm 3 mps 757 mmHg 71%

    Tomorrow, 21 October, Sunday

    Time Temperature Precipitation Wind Pressure Humidity
    00:00 +8°C° 0.1 mm 3 mps 757 mmHg 73%
    01:00 +8°C° 0.1 mm 3 mps 757 mmHg 75%
    02:00 +8°C° 0 mm 3 mps 757 mmHg 78%
    03:00 +7°C° 0 mm 3 mps 757 mmHg 81%
    04:00 +7°C° 0 mm 3 mps 757 mmHg 84%
    05:00 +5°C° 0 mm 3 mps 757 mmHg 86%
    06:00 +6°C° 0 mm 2 mps 757 mmHg 88%
    07:00 +6°C° 0 mm 2 mps 757 mmHg 91%
    08:00 +7°C° 0 mm 2 mps 757 mmHg 84%
    09:00 +9°C° 0 mm 2 mps 758 mmHg 77%
    10:00 +10°C° 0 mm 2 mps 758 mmHg 70%
    11:00 +12°C° 0 mm 2 mps 758 mmHg 65%
    12:00 +13°C° 0 mm 2 mps 757 mmHg 60%
    13:00 +14°C° 0 mm 2 mps 757 mmHg 55%
    14:00 +13°C° 0 mm 2 mps 757 mmHg 56%
    15:00 +13°C° 0 mm 2 mps 757 mmHg 58%
    16:00 +13°C° 0 mm 1 mps 757 mmHg 59%
    17:00 +11°C° 0 mm 1 mps 757 mmHg 64%
    18:00 +10°C° 0 mm 1 mps 757 mmHg 68%
    19:00 +9°C° 0 mm 1 mps 757 mmHg 72%
    20:00 +9°C° 0 mm 1 mps 757 mmHg 73%
    21:00 +8°C° 0 mm 1 mps 757 mmHg 75%
    22:00 +8°C° 0 mm 1 mps 757 mmHg 77%
    23:00 +7°C° 0 mm 1 mps 757 mmHg 78%

    Day after tomorrow, 22 October, Monday

    Time Temperature Precipitation Wind Pressure Humidity
    00:00 +6°C° 0 mm 0 mps 757 mmHg 80%
    01:00 +6°C° 0 mm 0 mps 757 mmHg 81%
    02:00 +6°C° 0 mm 0 mps 757 mmHg 82%
    03:00 +5°C° 0 mm 0 mps 756 mmHg 84%
    04:00 +5°C° 0 mm 0 mps 756 mmHg 85%
    05:00 +5°C° 0 mm 0 mps 756 mmHg 85%
    06:00 +5°C° 0 mm 0 mps 756 mmHg 85%
    07:00 +5°C° 0 mm 0 mps 756 mmHg 85%
    08:00 +7°C° 0 mm 0 mps 756 mmHg 77%
    09:00 +10°C° 0 mm 1 mps 756 mmHg 69%
    10:00 +12°C° 0 mm 1 mps 756 mmHg 61%
    11:00 +12°C° 0 mm 1 mps 756 mmHg 57%
    12:00 +13°C° 0 mm 1 mps 755 mmHg 53%
    13:00 +14°C° 0 mm 2 mps 755 mmHg 48%
    14:00 +14°C° 0 mm 1 mps 754 mmHg 51%
    15:00 +13°C° 0 mm 1 mps 754 mmHg 53%
    16:00 +13°C° 0 mm 1 mps 754 mmHg 55%
    17:00 +12°C° 0 mm 2 mps 754 mmHg 60%
    18:00 +10°C° 0 mm 2 mps 754 mmHg 64%
    19:00 +9°C° 0 mm 2 mps 754 mmHg 69%
    20:00 +9°C° 0.5 mm 3 mps 755 mmHg 74%
    21:00 +7°C° 0.5 mm 4 mps 755 mmHg 79%
    22:00 +7°C° 0.5 mm 5 mps 755 mmHg 84%
    23:00 +7°C° 0.2 mm 5 mps 755 mmHg 83%

    23 October, Tuesday

    Time Temperature Precipitation Wind Pressure Humidity
    00:00 +7°C° 0.2 mm 5 mps 755 mmHg 82%
    01:00 +6°C° 0.2 mm 5 mps 756 mmHg 81%
    02:00 +5°C° 0 mm 5 mps 756 mmHg 83%
    03:00 +5°C° 0 mm 4 mps 755 mmHg 84%
    04:00 +4°C° 0 mm 4 mps 755 mmHg 86%
    05:00 +3°C° 0 mm 4 mps 755 mmHg 87%
    06:00 +3°C° 0 mm 3 mps 755 mmHg 88%
    07:00 +3°C° 0 mm 3 mps 756 mmHg 88%
    08:00 +4°C° 0 mm 4 mps 755 mmHg 81%
    09:00 +6°C° 0 mm 5 mps 755 mmHg 73%
    10:00 +7°C° 0 mm 5 mps 755 mmHg 66%
    11:00 +8°C° 0 mm 6 mps 754 mmHg 64%
    12:00 +8°C° 0 mm 6 mps 753 mmHg 61%
    13:00 +9°C° 0 mm 7 mps 752 mmHg 58%
    14:00 +9°C° 0.1 mm 7 mps 751 mmHg 60%
    15:00 +8°C° 0.1 mm 7 mps 750 mmHg 62%
    16:00 +8°C° 0.1 mm 7 mps 749 mmHg 64%
    17:00 +7°C° 0.9 mm 8 mps 748 mmHg 68%
    18:00 +7°C° 0.9 mm 8 mps 747 mmHg 72%
    19:00 +6°C° 0.9 mm 9 mps 745 mmHg 76%
    20:00 +7°C° 0.9 mm 10 mps 744 mmHg 77%
    21:00 +7°C° 0.9 mm 10 mps 743 mmHg 77%
    22:00 +8°C° 0.9 mm 11 mps 742 mmHg 78%
    23:00 +8°C° 0.8 mm 11 mps 741 mmHg 79%

    24 October, Wednesday

    Time Temperature Precipitation Wind Pressure Humidity
    00:00 +9°C° 0.8 mm 10 mps 740 mmHg 80%
    01:00 +11°C° 0.8 mm 10 mps 739 mmHg 81%
    02:00 +9°C° 0.7 mm 10 mps 739 mmHg 79%
    03:00 +9°C° 0.7 mm 10 mps 739 mmHg 77%
    04:00 +9°C° 0.7 mm 10 mps 739 mmHg 75%
    05:00 +8°C° 0.1 mm 10 mps 740 mmHg 74%
    06:00 +7°C° 0.1 mm 10 mps 741 mmHg 74%
    07:00 +6°C° 0.1 mm 10 mps 742 mmHg 73%
    08:00 +6°C° 0.1 mm 10 mps 742 mmHg 65%
    09:00 +6°C° 0.1 mm 10 mps 743 mmHg 57%
    10:00 +6°C° 0.1 mm 10 mps 744 mmHg 50%
    11:00 +7°C° 0 mm 10 mps 745 mmHg 48%
    12:00 +7°C° 0 mm 10 mps 745 mmHg 46%
    13:00 +7°C° 0 mm 10 mps 745 mmHg 45%
    14:00 +7°C° 0 mm 9 mps 745 mmHg 49%
    15:00 +6°C° 0 mm 8 mps 745 mmHg 53%
    16:00 +7°C° 0 mm 6 mps 745 mmHg 56%
    17:00 +7°C° 0 mm 6 mps 746 mmHg 60%
    18:00 +6°C° 0 mm 5 mps 746 mmHg 64%
    19:00 +6°C° 0 mm 4 mps 746 mmHg 67%
    20:00 +5°C° 0 mm 4 mps 747 mmHg 68%
    21:00 +5°C° 0 mm 4 mps 747 mmHg 69%
    22:00 +5°C° 0 mm 4 mps 747 mmHg 70%
    23:00 +5°C° 0 mm 4 mps 747 mmHg 72%

    25 October, Thursday

    Time Temperature Precipitation Wind Pressure Humidity
    00:00 +5°C° 0 mm 3 mps 747 mmHg 73%
    01:00 +5°C° 0 mm 3 mps 746 mmHg 75%
    02:00 +5°C° 0.3 mm 3 mps 746 mmHg 78%
    03:00 +5°C° 0.3 mm 3 mps 746 mmHg 81%
    04:00 +5°C° 0.3 mm 3 mps 746 mmHg 84%
    05:00 +7°C° 0.4 mm 3 mps 746 mmHg 86%
    06:00 +7°C° 0.4 mm 3 mps 746 mmHg 88%
    07:00 +7°C° 0.4 mm 3 mps 746 mmHg 91%
    08:00 +7°C° 0.3 mm 4 mps 746 mmHg 90%
    09:00 +9°C° 0.3 mm 5 mps 746 mmHg 89%
    10:00 +10°C° 0.3 mm 6 mps 746 mmHg 88%
    11:00 +10°C° 0.2 mm 7 mps 746 mmHg 82%
    12:00 +11°C° 0.2 mm 8 mps 745 mmHg 77%
    13:00 +12°C° 0.2 mm 9 mps 745 mmHg 71%
    14:00 +11°C° 0.1 mm 8 mps 745 mmHg 73%
    15:00 +10°C° 0.1 mm 8 mps 745 mmHg 74%
    16:00 +10°C° 0.1 mm 8 mps 745 mmHg 75%
    17:00 +9°C° 0 mm 7 mps 746 mmHg 77%
    18:00 +9°C° 0 mm 7 mps 746 mmHg 78%
    19:00 +8°C° 0 mm 7 mps 746 mmHg 80%
    20:00 +8°C° 0 mm 6 mps 746 mmHg 80%
    21:00 +8°C° 0 mm 6 mps 746 mmHg 81%
    22:00 +8°C° 0 mm 6 mps 746 mmHg 81%
    23:00 +8°C° 0 mm 6 mps 746 mmHg 82%
    Show more